Content
SEND FEEDBACK

Daily
Averages
Monthly
Summary
United States of America

PYGA BEACH, GUAM


Home > North America > United States > Guam
Elevation: 6 meters     Latitude: 13 17N     Longitude: 144 39E

WEATHER
 
SELECT A DAY
Number of Records: 354,649;   Date Range: 1/1/95 - 11/25/14
 
SHARE

PRINT THIS DATA

[ ← Previous Day ]
WEATHER ALMANAC - 12 JUNE, 2013
[ Next Day → ]
[ °F ]   °C
Weather ElementAverageHighLow
Temperature27.6 °C31.2 °C (10:55 am)26 °C (1:40 am)
Dewpoint23.9 °C25.1 °C (2:55 am)22.8 °C (7:55 am)
Humidity81 %89 % (12:52 am)65 % (10:55 am)
Barometer1008.8 hPa1010.2 hPa (1:40 am)1007.5 hPa (3:55 pm)
Wind Speed25.1 km/h35.2 km/h (7:55 am)
Wind Gust42.6 km/h (6:55 am)
Weather ElementAverage
Visibility16.1 km
Wind DirectionENE (70 °)

Weather ElementTotal
Precipitation---
Cooling Degree Days10.3 (Base 18.3)
Growing Degree Days18.6 (Base 10)
Averaged from 73 records on 12 June, 2013
WEATHER CONDITIONS BREAKOUT
WIND DIRECTION BREAKOUT
WEATHER BY HOUR - 12 JUNE, 2013
[ °F ]   °C
Local TimeTemperatureDewpointHumidityBarometerVisibilityWind DirectionWind SpeedGust SpeedPrecipitationEventsConditions
12:11 AM27 °C24 °C84 %1009.5 hPa16.1 kmEast (90°)22.2 km/hThunderstormThunderstorm
12:13 AM27 °C24 °C84 %1009.5 hPa16.1 kmEast (90°)20.4 km/hThunderstormThunderstorm
12:24 AM27 °C24 °C84 %1009.5 hPa16.1 kmEast (90°)16.7 km/hScattered Clouds
12:36 AM27 °C24 °C84 %1009.5 hPa16.1 kmEast (90°)20.4 km/hMostly Cloudy
12:52 AM27 °C25 °C89 %1009.5 hPa16.1 kmEast (90°)18.5 km/hMostly Cloudy
12:55 AM27.2 °C24.7 °C86 %1009.5 hPa16.1 kmEast (90°)14.8 km/hMostly Cloudy
1:00 AM27 °C25 °C89 %1009.1 hPa16.1 kmEast (80°)14.8 km/hMostly Cloudy
1:06 AM27 °C25 °C89 %1009.5 hPa16.1 kmEast (80°)14.8 km/hMostly Cloudy
1:13 AM27 °C25 °C89 %1009.5 hPa16.1 kmEast (80°)22.2 km/hMostly Cloudy
1:33 AM27 °C25 °C89 %1009.1 hPa16.1 kmEast (80°)25.9 km/hMostly Cloudy
1:39 AM27 °C25 °C89 %1009.1 hPa16.1 kmEast (80°)25.9 km/hMostly Cloudy
1:40 AM26 °C24 °C89 %1010.2 hPa16.1 kmENE (70°)22.2 km/hThunderstormThunderstorm
1:55 AM26.2 °C23.7 °C86 %1009.1 hPa16.1 kmENE (60°)24.1 km/hThunderstormThunderstorm
2:10 AM26 °C23 °C83 %1009.1 hPa16.1 kmENE (70°)14.8 km/hThunderstormScattered Clouds
2:51 AM27 °C25 °C89 %1008.5 hPa16.1 kmEast (80°)16.7 km/hThunderstormMostly Cloudy
2:52 AM27 °C25 °C89 %1008.5 hPa16.1 kmENE (70°)18.5 km/hThunderstormMostly Cloudy
2:55 AM27 °C25.1 °C89 %1008.8 hPa16.1 kmENE (70°)25.9 km/hMostly Cloudy
2:56 AM27 °C25 °C89 %1008.8 hPa16.1 kmENE (70°)27.8 km/hLight Drizzle
3:01 AM27 °C25 °C89 %1008.5 hPa16.1 kmENE (70°)31.5 km/hLight Drizzle
3:07 AM27 °C24 °C84 %1008.5 hPa16.1 kmEast (80°)27.8 km/hMostly Cloudy
3:27 AM27 °C25 °C89 %1008.8 hPa16.1 kmENE (70°)25.9 km/hScattered Clouds
3:28 AM27 °C25 °C89 %1008.8 hPa16.1 kmENE (70°)22.2 km/hMostly Cloudy
3:32 AM27 °C25 °C89 %1009.1 hPa16.1 kmENE (70°)29.6 km/hScattered Clouds
3:33 AM27 °C25 °C89 %1009.1 hPa16.1 kmENE (70°)27.8 km/hMostly Cloudy
3:43 AM27 °C24 °C84 %1008.8 hPa16.1 kmENE (60°)22.2 km/hScattered Clouds
3:55 AM27.1 °C24.6 °C86 %1008.5 hPa16.1 kmENE (60°)24.1 km/h0 mmScattered Clouds
3:57 AM27 °C25 °C89 %1008.5 hPa16.1 kmNE (50°)25.9 km/hMostly Cloudy
4:10 AM27 °C25 °C89 %1008.5 hPa16.1 kmENE (60°)27.8 km/hScattered Clouds
4:11 AM27 °C25 °C89 %1008.5 hPa16.1 kmNE (50°)31.5 km/hMostly Cloudy
4:13 AM27 °C25 °C89 %1008.5 hPa16.1 kmNE (50°)29.6 km/hScattered Clouds
4:18 AM27 °C25 °C89 %1008.8 hPa16.1 kmENE (60°)31.5 km/h40.7 km/hMostly Cloudy
4:30 AM27 °C24 °C84 %1008.8 hPa16.1 kmENE (60°)31.5 km/hMostly Cloudy
4:55 AM27.1 °C23.8 °C82 %1009.1 hPa16.1 kmENE (60°)27.8 km/hMostly Cloudy
5:12 AM27 °C24 °C84 %1009.5 hPa16.1 kmENE (60°)24.1 km/hMostly Cloudy
5:40 AM27 °C24 °C84 %1009.5 hPa16.1 kmENE (60°)29.6 km/hScattered Clouds
5:55 AM27.1 °C23.7 °C82 %1009.5 hPa16.1 kmENE (60°)25.9 km/hPartly Cloudy
6:36 AM27 °C24 °C84 %1009.8 hPa16.1 kmENE (60°)31.5 km/hMostly Cloudy
6:42 AM27 °C23 °C79 %1009.8 hPa16.1 kmENE (60°)33.3 km/h40.7 km/hScattered Clouds
6:55 AM27.5 °C23.3 °C78 %1010.2 hPa16.1 kmENE (60°)29.6 km/h42.6 km/hScattered Clouds
7:55 AM28.8 °C22.8 °C70 %1010.2 hPa16.1 kmENE (60°)35.2 km/hClear
8:55 AM29.5 °C23.5 °C70 %1010.2 hPa16.1 kmENE (60°)33.3 km/hClear
9:55 AM29.4 °C23.8 °C72 %1010.2 hPa16.1 kmENE (60°)31.5 km/h40.7 km/hClear
10:55 AM31.2 °C23.9 °C65 %1010.2 hPa16.1 kmENE (70°)27.8 km/h38.9 km/hClear
11:55 AM29.4 °C23.1 °C69 %1009.5 hPa16.1 kmENE (60°)22.2 km/hPartly Cloudy
12:55 PM29.2 °C23.3 °C70 %1008.5 hPa16.1 kmENE (70°)22.2 km/hScattered Clouds
1:55 PM29.9 °C23 °C66 %1008.1 hPa16.1 kmENE (70°)27.8 km/h38.9 km/hPartly Cloudy
2:12 PM30 °C23 °C66 %1008.1 hPa16.1 kmENE (60°)29.6 km/hMostly Cloudy
2:22 PM30 °C23 °C66 %1008.1 hPa16.1 kmENE (60°)31.5 km/hMostly Cloudy
2:55 PM29.7 °C22.9 °C67 %1007.8 hPa16.1 kmENE (60°)27.8 km/h38.9 km/hPartly Cloudy
3:55 PM29.9 °C23.5 °C68 %1007.5 hPa16.1 kmEast (80°)25.9 km/h37 km/hPartly Cloudy
4:34 PM29 °C24 °C74 %1007.8 hPa16.1 kmENE (60°)24.1 km/hMostly Cloudy
4:44 PM29 °C24 °C74 %1007.8 hPa16.1 kmENE (60°)25.9 km/hScattered Clouds
4:48 PM29 °C24 °C74 %1007.8 hPa16.1 kmENE (70°)24.1 km/hMostly Cloudy
4:55 PM29 °C23.4 °C72 %1007.8 hPa16.1 kmENE (60°)27.8 km/hMostly Cloudy
5:06 PM29 °C24 °C74 %1007.8 hPa16.1 kmENE (60°)24.1 km/h35.2 km/hScattered Clouds
5:16 PM28 °C23 °C74 %1007.8 hPa16.1 kmEast (80°)27.8 km/hMostly Cloudy
5:18 PM28 °C23 °C74 %1007.8 hPa16.1 kmENE (70°)27.8 km/hScattered Clouds
5:55 PM28.2 °C23.4 °C75 %1008.1 hPa16.1 kmENE (70°)27.8 km/hScattered Clouds
6:55 PM27.4 °C23.1 °C77 %1008.5 hPa16.1 kmEast (80°)22.2 km/hMostly Cloudy
7:55 PM27.3 °C22.9 °C77 %1008.8 hPa16.1 kmEast (80°)24.1 km/hOvercast
8:21 PM27 °C23 °C79 %1008.8 hPa16.1 kmENE (70°)25.9 km/hMostly Cloudy
8:27 PM27 °C23 °C79 %1008.8 hPa16.1 kmEast (80°)24.1 km/hMostly Cloudy
8:49 PM27 °C23 °C79 %1008.8 hPa16.1 kmEast (80°)20.4 km/hMostly Cloudy
8:54 PM27 °C24 °C84 %1008.8 hPa16.1 kmENE (70°)25.9 km/hScattered Clouds
8:55 PM27.2 °C23.5 °C80 %1008.8 hPa16.1 kmENE (70°)25.9 km/hMostly Cloudy
9:07 PM27 °C23 °C79 %1008.8 hPa16.1 kmEast (90°)24.1 km/hScattered Clouds
9:55 PM27.1 °C23.2 °C79 %1008.8 hPa16.1 kmENE (70°)24.1 km/hScattered Clouds
9:56 PM27 °C23 °C79 %1008.8 hPa16.1 kmENE (70°)24.1 km/hMostly Cloudy
10:01 PM27 °C23 °C79 %1008.8 hPa16.1 kmENE (70°)25.9 km/hScattered Clouds
10:55 PM27.1 °C23.5 °C81 %1008.8 hPa16.1 kmEast (80°)22.2 km/hOvercast
11:11 PM27 °C24 °C84 %1008.8 hPa16.1 kmEast (80°)18.5 km/hOvercast
11:13 PM27 °C24 °C84 %1008.8 hPa16.1 kmENE (70°)22.2 km/hOvercast
11:55 PM27 °C23.5 °C81 %1008.8 hPa16.1 kmEast (80°)16.7 km/hMostly Cloudy
Hourly data recorded from PGUA, located 0 kilometers away from Pyga Beach, Guam







STORIES FROM OUR PARTNERS